[[{"header":{"parameterUnit":"m.s-1","parameterCategory":1,"la1":30.2991,"la2":30.254,"lo1":-89.0895,"lo2":-89.0444,"dy":0.0017,"dx":0.0017,"nx":28,"ny":28,"refTime":"2023-11-04T09:00:00:Z","depth":0,"parameterNumber":2,"parameterNumberName":"U-component_of_WINDS"},"data":[0,0,0,0,0,0,0,0,0,0,0,0,0,0,0,0,0,0,0,0,0,0,0,0,0,0,0,0,0,0,0,0,0,0,0,0,0,0,0,0,0,0,0,0,0,0,0,0,0,0,0,0,0,0,0,0,0,0,-0.9058,-0.9058,0,-0.8993,-0.8992,-0.8992,-0.8902,-0.89,-0.8899,-0.8897,-0.8831,-0.8831,-0.8831,0,0,0,0,0,0,0,0,0,0,0,0,0,-0.9105,-0.9105,-0.9058,-0.9058,-0.9057,-0.8993,-0.8992,-0.8991,-0.8902,-0.89,-0.8898,-0.8896,-0.8831,-0.8831,-0.8831,0,0,0,0,0,0,0,0,0,0,0,0,0,-0.9067,-0.9105,-0.9059,-0.9004,-0.8999,-0.8993,-0.8992,-0.8991,-0.8902,-0.89,-0.8898,-0.8896,-0.8831,-0.8831,-0.8831,-0.8873,0,0,-0.8829,-0.8829,0,0,0,0,0,0,0,0,-0.9069,-0.9066,-0.9013,-0.9008,-0.9002,-0.8953,-0.8985,-0.8952,-0.8903,-0.8939,-0.8897,-0.8894,-0.8874,-0.887,-0.8862,-0.887,-0.8867,-0.8829,-0.8829,-0.8828,-0.8828,0,0,0,0,0,0,0,-0.9072,-0.9068,-0.9033,-0.9013,-0.9006,-0.8983,-0.8975,-0.8978,-0.892,-0.8936,-0.8929,-0.8922,-0.887,-0.8863,-0.886,-0.8866,-0.8829,-0.8829,-0.8828,-0.8828,-0.8905,-0.8907,0,0,0,0,0,0,-0.9083,-0.9071,-0.9035,-0.9031,-0.9031,-0.8984,-0.8975,-0.8971,-0.892,-0.891,-0.8924,-0.8918,-0.8865,-0.8861,-0.8858,-0.8904,-0.8828,-0.8828,-0.8828,-0.8903,-0.8906,-0.8908,0,0,0,0,0,0,-0.9084,-0.9081,-0.9037,-0.9049,-0.9042,-0.8986,-0.8982,-0.8971,-0.8964,-0.8911,-0.89,-0.8928,-0.8863,-0.8858,-0.887,-0.8901,-0.8828,-0.8827,-0.89,-0.8904,-0.8907,-0.8999,0,0,0,0,0,0,-0.9086,-0.9082,-0.9097,-0.905,-0.9041,-0.9051,-0.8984,-0.8971,-0.8963,-0.8955,-0.8912,-0.8902,-0.8861,-0.8871,-0.8869,-0.8899,-0.8827,-0.8897,-0.8902,-0.8906,-0.8993,-0.9005,-0.9015,0,0,0,0,0,-0.9088,-0.9126,-0.9099,-0.9095,-0.906,-0.9053,-0.9048,-0.9,-0.8966,-0.8982,-0.8947,-0.8904,-0.8897,-0.8873,-0.887,-0.89,-0.8895,-0.89,-0.8905,-0.8988,-0.9003,-0.9015,0,0,0,0,0,0,-0.918,-0.9119,-0.9088,-0.9112,-0.9088,-0.9038,-0.9056,-0.9017,-0.9003,-0.8996,-0.8936,-0.8927,-0.8946,-0.8924,-0.8898,-0.8938,-0.8889,-0.8895,-0.8953,-0.8967,-0.8978,-0.8984,-0.8826,0,0,0,0,0,-0.9203,-0.9202,-0.9149,-0.9175,-0.9165,-0.9113,-0.9108,-0.9072,-0.9046,-0.9035,-0.9002,-0.8978,-0.897,-0.8967,-0.8957,-0.8988,-0.8978,-0.9007,-0.9019,-0.9028,-0.9034,-0.9049,-0.9062,-0.8926,-0.8926,-0.8925,0,0,-0.925,-0.9217,-0.922,-0.9193,-0.917,-0.9171,-0.9105,-0.9109,-0.9109,-0.9036,-0.9045,-0.902,-0.8989,-0.901,-0.9018,-0.8992,-0.9069,-0.9035,-0.9043,-0.9043,-0.9056,-0.9069,-0.908,-0.8929,-0.8928,-0.8928,0,0,-0.9338,-0.9312,-0.9331,-0.931,-0.9276,-0.9241,-0.9246,-0.9201,-0.9181,-0.9189,-0.9134,-0.9133,-0.9121,-0.9101,-0.909,-0.9168,-0.9128,-0.9166,-0.9227,-0.9242,-0.9253,-0.9262,-0.9291,-0.9302,-0.9172,-0.9172,-0.9172,0,-0.9402,-0.9401,-0.9346,-0.9353,-0.9343,-0.9275,-0.9295,-0.9276,-0.9242,-0.9236,-0.9207,-0.919,-0.9165,-0.9181,-0.92,-0.9192,-0.9196,-0.9172,-0.9255,-0.9264,-0.9272,-0.9299,-0.931,-0.9177,-0.9176,-0.9176,-0.9175,0,-0.9481,-0.9481,-0.95,-0.9468,-0.9459,-0.9473,-0.942,-0.9418,-0.9382,-0.935,-0.9359,-0.9325,-0.9308,-0.9308,-0.9274,-0.9319,-0.9304,-0.9266,-0.9216,-0.9291,-0.9315,-0.9325,-0.9184,-0.9183,-0.9181,-0.918,0,0,-0.9627,-0.9563,-0.9572,-0.9556,-0.9513,-0.9512,-0.9522,-0.9504,-0.9503,-0.9481,-0.9488,-0.9478,-0.9442,-0.9429,-0.9392,-0.9405,-0.947,-0.9365,-0.9363,-0.9387,-0.9519,-0.955,-0.9562,-0.9442,-0.9443,-0.9445,-0.9522,0,-0.9708,-0.9721,-0.9672,-0.9698,-0.9697,-0.9632,-0.964,-0.9615,-0.9585,-0.958,-0.9546,-0.9541,-0.9493,-0.9485,-0.9495,-0.946,-0.9496,-0.9454,-0.9449,-0.9449,-0.9461,-0.9575,-0.9607,-0.9682,-0.9531,-0.9533,-0.9534,0,-0.9804,-0.9787,-0.9813,-0.9768,-0.9766,-0.9774,-0.9754,-0.9749,-0.9719,-0.9696,-0.9681,-0.9637,-0.9643,-0.9593,-0.9601,-0.9573,-0.9567,-0.955,-0.9552,-0.9551,-0.9498,-0.9579,-0.9704,-0.9716,-0.9548,-0.9547,-0.9546,0,-0.991,-0.9893,-0.9906,-0.9894,-0.9842,-0.9849,-0.9828,-0.9795,-0.9787,-0.9769,-0.9763,-0.9745,-0.9736,-0.9724,-0.9676,-0.9644,-0.969,-0.9636,-0.9672,-0.9673,-0.9686,-0.9686,-0.9814,-0.968,-0.968,-0.9679,-0.9679,0,-1.0007,-1.0026,-0.9953,-0.9961,-0.998,-0.9922,-0.9943,-0.9915,-0.9886,-0.9887,-0.9829,-0.9832,-0.9768,-0.9764,-0.9726,-0.9739,-0.9735,-0.9717,-0.9707,-0.9723,-0.9726,-0.9721,-0.9715,-0.9682,-0.9682,-0.9681,-0.968,0,-1.0129,-1.0081,-1.0091,-1.004,-1.0028,-1.0044,-1.0,-1.0006,-0.9971,-0.9974,-0.9971,-0.9917,-0.9909,-0.9859,-0.984,-0.9814,-0.9841,-0.982,-0.9852,-0.9846,-0.9884,-0.9882,-1.0015,-1.003,-0.9885,-0.9886,-0.9887,0,-1.0195,-1.0208,-1.0158,-1.0155,-1.0136,-1.0132,-1.0123,-1.0066,-1.0059,-1.0025,-1.0035,-1.0022,-1.0008,-0.9998,-0.9957,-0.9942,-0.9921,-0.9968,-0.9918,-0.9934,-0.9923,-0.9924,-0.9925,-0.998,-0.9982,-0.9983,-0.9985,0,-1.0318,-1.0293,-1.0282,-1.0264,-1.0255,-1.0237,-1.0216,-1.0217,-1.0154,-1.0149,-1.014,-1.013,-1.0109,-1.0097,-1.0075,-1.0052,-1.0009,-1.0,-1.0008,-1.0026,-1.0044,-1.0036,-0.9883,-0.9998,-0.9997,-0.9996,-0.9995,-0.9995,-1.0414,-1.0423,-1.0389,-1.0379,-1.0357,-1.0339,-1.0342,-1.0306,-1.0298,-1.0277,-1.0243,-1.0239,-1.0206,-1.0171,-1.0152,-1.0148,-1.0123,-1.0133,-1.0136,-1.0141,-1.0149,-1.0043,-1.0143,-1.0143,-1.0142,-1.0142,-1.0142,0,-1.0535,-1.051,-1.0501,-1.0473,-1.0466,-1.0424,-1.0398,-1.0394,-1.0391,-1.0365,-1.0353,-1.0342,-1.0329,-1.0287,-1.027,-1.0275,-1.0254,-1.0272,-1.0272,-1.0268,-1.0172,-1.0168,-1.0289,-1.0289,-1.0289,-1.0289,-1.0289,-1.0289,-1.0597,-1.061,-1.0581,-1.0581,-1.0555,-1.055,-1.0539,-1.0522,-1.05,-1.0491,-1.048,-1.0452,-1.0418,-1.0399,-1.0385,-1.0373,-1.037,-1.0395,-1.0377,-1.0289,-1.0275,-1.0261,-1.0257,-1.0395,-1.0395,-1.0473,-1.0474,-1.0474]},{"header":{"parameterUnit":"m.s-1","parameterCategory":1,"la1":30.2991,"la2":30.254,"lo1":-89.0895,"lo2":-89.0444,"dy":0.0017,"dx":0.0017,"nx":28,"ny":28,"refTime":"2023-11-04T09:00:00:Z","depth":0,"parameterNumber":3,"parameterNumberName":"V-component_of_WINDS"},"data":[0,0,0,0,0,0,0,0,0,0,0,0,0,0,0,0,0,0,0,0,0,0,0,0,0,0,0,0,0,0,0,0,0,0,0,0,0,0,0,0,0,0,0,0,0,0,0,0,0,0,0,0,0,0,0,0,0,0,-0.2255,-0.2257,0,-0.2433,-0.2435,-0.2437,-0.2533,-0.2534,-0.2534,-0.2534,-0.272,-0.2724,-0.2729,0,0,0,0,0,0,0,0,0,0,0,0,0,-0.2,-0.2004,-0.2255,-0.2257,-0.2259,-0.2433,-0.2435,-0.2438,-0.2533,-0.2534,-0.2534,-0.2534,-0.2718,-0.2724,-0.2729,0,0,0,0,0,0,0,0,0,0,0,0,0,-0.2138,-0.2005,-0.2254,-0.2328,-0.2336,-0.2432,-0.2435,-0.2438,-0.2533,-0.2534,-0.2534,-0.2534,-0.2716,-0.2723,-0.273,-0.2768,0,0,-0.2752,-0.2755,0,0,0,0,0,0,0,0,-0.213,-0.2147,-0.2315,-0.2323,-0.2332,-0.2461,-0.2413,-0.2549,-0.2533,-0.2459,-0.2534,-0.2534,-0.2634,-0.2647,-0.268,-0.2776,-0.2784,-0.2752,-0.2757,-0.276,-0.2762,0,0,0,0,0,0,0,-0.212,-0.214,-0.2325,-0.2317,-0.2328,-0.2353,-0.2373,-0.2439,-0.2542,-0.2465,-0.2472,-0.2492,-0.2638,-0.2673,-0.2685,-0.2787,-0.2752,-0.2759,-0.2763,-0.2766,-0.2923,-0.2923,0,0,0,0,0,0,-0.2098,-0.2131,-0.232,-0.2331,-0.223,-0.2357,-0.2379,-0.242,-0.2542,-0.2561,-0.2492,-0.2496,-0.2661,-0.2677,-0.2692,-0.2745,-0.276,-0.2766,-0.277,-0.2923,-0.2923,-0.2923,0,0,0,0,0,0,-0.2092,-0.2114,-0.2313,-0.2233,-0.226,-0.2361,-0.2406,-0.2423,-0.2458,-0.2562,-0.2581,-0.2508,-0.2662,-0.2682,-0.2748,-0.2752,-0.277,-0.2776,-0.2923,-0.2923,-0.2923,-0.2849,0,0,0,0,0,0,-0.2085,-0.2111,-0.2126,-0.2233,-0.2264,-0.2364,-0.2406,-0.2426,-0.2469,-0.2477,-0.2582,-0.26,-0.2664,-0.2737,-0.2755,-0.2762,-0.2782,-0.2923,-0.2923,-0.2923,-0.2851,-0.2846,-0.2842,0,0,0,0,0,-0.2075,-0.2099,-0.2127,-0.2149,-0.2285,-0.2364,-0.2383,-0.2454,-0.2469,-0.2486,-0.2552,-0.2597,-0.2748,-0.2743,-0.2764,-0.2774,-0.2923,-0.2923,-0.2923,-0.2854,-0.2847,-0.2842,0,0,0,0,0,0,-0.1992,-0.2115,-0.2146,-0.2205,-0.2273,-0.238,-0.2403,-0.2445,-0.2512,-0.2516,-0.2603,-0.2626,-0.2683,-0.2735,-0.2726,-0.2816,-0.284,-0.2844,-0.2781,-0.2775,-0.2771,-0.2758,-0.2788,0,0,0,0,0,-0.198,-0.2034,-0.2139,-0.2181,-0.2213,-0.2302,-0.2339,-0.2388,-0.2463,-0.2493,-0.2564,-0.2636,-0.27,-0.274,-0.2805,-0.2859,-0.2884,-0.2876,-0.2871,-0.2866,-0.2869,-0.2902,-0.29,-0.2922,-0.2922,-0.2922,0,0,-0.1958,-0.2031,-0.206,-0.2166,-0.2225,-0.2279,-0.2326,-0.2381,-0.2423,-0.2502,-0.2568,-0.2623,-0.2708,-0.2768,-0.2798,-0.2813,-0.2868,-0.2866,-0.2862,-0.2868,-0.2901,-0.2899,-0.2897,-0.2922,-0.2922,-0.2922,0,0,-0.1944,-0.2004,-0.2046,-0.2103,-0.2191,-0.2249,-0.2259,-0.236,-0.2399,-0.2466,-0.2526,-0.2577,-0.2685,-0.2744,-0.2788,-0.2794,-0.2838,-0.2812,-0.2788,-0.2818,-0.2817,-0.2816,-0.2819,-0.2818,-0.2815,-0.2814,-0.2814,0,-0.1905,-0.1988,-0.2062,-0.2114,-0.2159,-0.2231,-0.2274,-0.2327,-0.2431,-0.2461,-0.2476,-0.2612,-0.2675,-0.275,-0.2751,-0.2784,-0.2798,-0.2802,-0.2811,-0.281,-0.2811,-0.2814,-0.2815,-0.2811,-0.2811,-0.2812,-0.2812,0,-0.1936,-0.1993,-0.2016,-0.2113,-0.2161,-0.2208,-0.229,-0.2329,-0.2373,-0.243,-0.2498,-0.2575,-0.2657,-0.2678,-0.2722,-0.2759,-0.2765,-0.2794,-0.282,-0.2804,-0.2809,-0.2811,-0.2806,-0.2807,-0.2808,-0.2809,0,0,-0.1877,-0.2013,-0.202,-0.2065,-0.2167,-0.2213,-0.2263,-0.2341,-0.2373,-0.2443,-0.2488,-0.2576,-0.2604,-0.2653,-0.2705,-0.2731,-0.2732,-0.2758,-0.2761,-0.2751,-0.2777,-0.2755,-0.2756,-0.2761,-0.2761,-0.2762,-0.277,0,-0.1878,-0.1971,-0.2038,-0.2106,-0.2159,-0.2228,-0.2272,-0.2339,-0.2393,-0.2447,-0.2507,-0.2569,-0.26,-0.263,-0.266,-0.2725,-0.2738,-0.2726,-0.2805,-0.2806,-0.2782,-0.2758,-0.2736,-0.274,-0.2773,-0.2773,-0.2773,0,-0.1893,-0.1958,-0.203,-0.2125,-0.215,-0.2188,-0.2265,-0.2315,-0.2393,-0.2431,-0.2485,-0.2537,-0.2594,-0.2613,-0.2693,-0.2683,-0.2719,-0.2756,-0.2758,-0.277,-0.279,-0.277,-0.2744,-0.2744,-0.2777,-0.2777,-0.2776,0,-0.1843,-0.1949,-0.2006,-0.2042,-0.2154,-0.2179,-0.2227,-0.2305,-0.2347,-0.2414,-0.2443,-0.2516,-0.2557,-0.2612,-0.2683,-0.2691,-0.2756,-0.2782,-0.279,-0.2788,-0.2802,-0.28,-0.2782,-0.2823,-0.2823,-0.2823,-0.2823,0,-0.1838,-0.188,-0.1985,-0.202,-0.2069,-0.2146,-0.2192,-0.2246,-0.2314,-0.2361,-0.2425,-0.2468,-0.2559,-0.2613,-0.2669,-0.2727,-0.2745,-0.2777,-0.2792,-0.2772,-0.2768,-0.2798,-0.28,-0.2823,-0.2823,-0.2823,-0.2823,0,-0.1792,-0.1864,-0.193,-0.203,-0.2056,-0.2087,-0.2173,-0.221,-0.2267,-0.2326,-0.2344,-0.2434,-0.2501,-0.2577,-0.267,-0.2707,-0.2762,-0.2782,-0.2735,-0.2744,-0.2748,-0.2747,-0.2749,-0.2754,-0.279,-0.2789,-0.2789,0,-0.1785,-0.1818,-0.1921,-0.1956,-0.2002,-0.2058,-0.2102,-0.2178,-0.222,-0.231,-0.2336,-0.2408,-0.247,-0.2574,-0.2648,-0.2719,-0.2743,-0.2739,-0.2754,-0.2733,-0.2744,-0.2741,-0.2746,-0.2735,-0.2734,-0.2733,-0.2733,0,-0.1765,-0.1798,-0.1857,-0.1928,-0.1978,-0.2038,-0.2101,-0.2126,-0.2216,-0.226,-0.2329,-0.2376,-0.247,-0.2541,-0.2621,-0.2671,-0.2717,-0.2727,-0.2733,-0.2714,-0.2685,-0.2702,-0.2724,-0.2727,-0.2728,-0.2728,-0.2728,-0.2728,-0.1739,-0.1772,-0.1848,-0.1912,-0.1967,-0.2023,-0.2063,-0.2124,-0.2182,-0.2263,-0.2305,-0.2373,-0.2449,-0.2561,-0.261,-0.2665,-0.2681,-0.2689,-0.2691,-0.2692,-0.2687,-0.2675,-0.268,-0.268,-0.2681,-0.2681,-0.2681,0,-0.1723,-0.1775,-0.1832,-0.1917,-0.1967,-0.2004,-0.2075,-0.2115,-0.2173,-0.224,-0.2299,-0.2377,-0.2446,-0.2524,-0.2598,-0.2627,-0.265,-0.2644,-0.2643,-0.2654,-0.2669,-0.2657,-0.2624,-0.2624,-0.2624,-0.2624,-0.2624,-0.2624,-0.172,-0.1778,-0.182,-0.1905,-0.1957,-0.2023,-0.2061,-0.2114,-0.2167,-0.2252,-0.2308,-0.2358,-0.243,-0.2509,-0.2574,-0.2595,-0.262,-0.2608,-0.2635,-0.2648,-0.2653,-0.2658,-0.2647,-0.2612,-0.2612,-0.2616,-0.2616,-0.2616]}]]